www.pogodaiklimat.ru

Погода и климат >> Архив погоды >> Австрия >> Линц


ПОГОДА в Линце

  • Прогноз погоды в Линце
  • Монитор погоды в Линце

АРХИВ ПОГОДЫ в Линце

Время (UTC), дата Ветер
(напр.,м/с)
 
Видим.   Явления Облачность Т
(С)
Тd
(С)
f
(%)
Тe
(С)
Тes
(С)
Комфортность P
(гПа)
Po
(гПа)
Тmin
(С)
Tmax
(С)
R
(мм)
R24
(мм)
S
(см)
16 10.09 45 км 4/4 1200 м
[]
+20.4 +10.9 54 1016.7 980.7
17 10.09 65 км 5/5 1200 м
[]
+19.0 +10.9 59 1017.1 980.9
18 10.09 С 1 55 км 4/4 1500 м
[]
+16.9 +11.4 70 +18 +18 1017.8 981.3 +20.8
19 10.09 55 км 5/0
[]
+15.3 +11.0 76 1018.6 981.9
20 10.09 40 км 5/0
[]
+13.6 +11.0 84 1019.3 982.4
21 10.09 50 км 6/0
[]
+12.9 +11.0 88 1019.8 982.8
22 10.09 35 км 5/0
[]
+12.3 +10.7 90 1020.3 983.2
23 10.09 35 км 10/0
[]
+11.7 +10.7 94 1020.4 983.2
00 11.09 28 км н/о +11.1 +10.5 96 1020.6 983.3
01 11.09 16 км 1/0
[]
+10.5 +9.9 96 1020.9 983.5
02 11.09 11 км 10/0
[]
+10.2 +10.0 99 1021.1 983.6
03 11.09 7000 м 1/0
[]
+9.8 +9.6 99 1021.2 983.7
04 11.09 7000 м 4/0
[]
+8.9 +8.5 97 1021.7 984.0
05 11.09 13 км местами туман поземный 5/0
[]
+9.2 +9.0 99 1022.4 984.8
06 11.09 С 1 17 км 6/0
[]
+10.4 +9.8 96 +10 +11 1022.5 985.0 +8.7
07 11.09 30 км 6/6 210 м
[]
+12.5 +10.8 89 1023.0 985.8
08 11.09 30 км 6/6 400 м
[]
+15.5 +12.1 80 1023.1 986.3
09 11.09 С 2 29 км 6/6 600 м
[]
+16.6 +12.3 76 +17 +20 1023.2 986.5
10 11.09 28 км 6/6 750 м
[]
+18.4 +12.8 70 1022.9 986.4
11 11.09 40 км 6/6 800 м
[]
+19.7 +13.0 65 1022.5 986.2
12 11.09 С 2 45 км 8/8 900 м
[]
+19.7 +12.7 64 +22 +24 комфорт 1022.7 986.4
13 11.09 СЗ 3 45 км 9/9 900 м
[]
+20.3 +13.2 64 +23 +23 комфорт 1022.5 986.3
14 11.09 З 5 40 км 9/9 900 м
[]
+19.9 +13.5 67 +22 +22 комфорт 1022.5 986.3
15 11.09 З 4 50 км 9/9 900 м
[]
+18.9 +13.0 69 +20 +20 1022.7 986.3
16 11.09 З 4 45 км 8/0
[]
+18.5 +12.7 69 +19 +19 1023.3 986.8
17 11.09 50 км 1/0
[]
+18.7 +13.4 71 1023.4 987.0
18 11.09 40 км н/о +17.1 +13.0 77 1024.5 987.8 +20.6
19 11.09 30 км н/о +15.8 +12.8 82 1025.2 988.3
20 11.09 25 км 1/0
[]
+14.8 +12.5 86 1026.0 989.0
21 11.09 З 3 21 км н/о +14.0 +12.2 89 +13 +13 1026.9 989.7
22 11.09 З 4 25 км 4/4 1440 м
[]
+14.1 +12.1 88 +13 +13 1027.3 990.1
23 11.09 22 км н/о +13.6 +12.1 91 1027.5 990.3
00 12.09 14 км н/о +11.7 +10.9 95 1027.9 990.4
01 12.09 8000 м н/о +11.4 +10.9 97 1028.5 990.9
02 12.09 9000 м н/о +11.0 +10.4 96 1029.1 991.5
03 12.09 С 2 3900 м дымка 1/1 30 м
[]
+10.5 +10.4 99 +9 +9 1029.7 992.0
04 12.09 6000 м местами туман поземный 3/0
[]
+10.0 +9.6 97 1030.0 992.2
05 12.09 6000 м местами туман поземный 1/0
[]
+10.1 +9.7 97 1030.5 992.7
06 12.09 С 1 7000 м туман на расстоянии 3/3 1500 м
[]
+12.0 +11.3 95 +12 +12 1030.9 993.3 +9.4
07 12.09 12 км 6/6 1500 м
[]
+13.7 +12.4 92 1031.4 994.0
08 12.09 18 км 9/9 360 м
[]
+14.9 +12.8 87 1031.9 994.7
09 12.09 З 4 35 км 9/9 450 м
[]
+17.2 +12.5 74 +17 +17 1031.8 994.9
10 12.09 З 4 45 км 9/9 900 м
[]
+18.2 +11.1 63 +18 +19 1031.9 995.1
11 12.09 45 км 9/9 1050 м
[]
+19.7 +11.5 59 1031.5 994.9
12 12.09 ЮЗ 4 55 км 9/9 1500 м
[]
+20.6 +10.8 53 +22 +23 комфорт 1031.2 994.7
13 12.09 З 5 65 км 6/6 1200 м
[]
+21.5 +10.1 48 +23 +25 комфорт 1030.7 994.3
14 12.09 ЮЗ 4 55 км 4/4 1500 м
[]
+22.4 +10.9 48 +24 +27 комфорт 1030.3 994.0
15 12.09 55 км 3/3 1500 м
[]
+22.3 +11.1 49 1029.9 993.7
16 12.09 55 км 3/3 1500 м
[]
+21.5 +11.7 54 1029.8 993.5
17 12.09 55 км 1/0
[]
+21.0 +11.8 56 1029.8 993.4
18 12.09 50 км н/о +18.8 +12.1 65 1030.2 993.5 +22.8
20 12.09 45 км н/о +14.5 +12.4 87 1031.5 994.2
21 12.09 30 км н/о +13.8 +12.2 90 1031.8 994.4
22 12.09 40 км н/о +13.7 +12.1 90 1032.1 994.7
23 12.09 24 км н/о +12.7 +11.6 93 1032.1 994.6
00 13.09 С 1 9000 м 9/9 1500 м
[]
+12.1 +11.7 97 +12 +12 1032.3 994.7
01 13.09 24 км 10/10 1500 м
[]
+12.4 +11.7 95 1032.0 994.5
02 13.09 17 км 10/10 1500 м
[]
+13.0 +12.1 94 1031.8 994.3
03 13.09 С 1 20 км 10/10 1500 м
[]
+13.0 +12.1 94 +13 +13 1031.7 994.2
04 13.09 20 км 8/8 1500 м
[]
+12.7 +12.0 96 1031.8 994.3
05 13.09 8000 м 4/4 1500 м
[]
+12.0 +11.5 97 1032.1 994.5
06 13.09 15 км 1/1 1500 м
[]
+13.3 +12.4 94 1032.0 994.6 +11.5
07 13.09 27 км 1/0
[]
+15.3 +12.7 84 1032.0 994.8
08 13.09 30 км 1/0
[]
+17.3 +13.6 79 1031.8 994.9
09 13.09 55 км 1/1 750 м
[]
+19.8 +13.7 68 1031.2 994.6
10 13.09 29 км 1/1 840 м
[]
+21.7 +14.3 63 1030.5 994.2
11 13.09 З 5 55 км 1/1 1050 м
[]
+23.2 +14.0 56 +27 +32 душно 1030.3 994.2
12 13.09 З 6 60 км 3/3 1200 м
[]
+23.5 +13.8 54 +26 +29 жарко 1030.1 994.0
13 13.09 З 6 35 км 3/3 1260 м
[]
+24.8 +14.1 51 +27 +29 жарко 1029.8 993.9
14 13.09 СЗ 4 55 км 4/4 1260 м
[]
+23.7 +14.6 57 +26 +29 жарко 1029.6 993.6
15 13.09 З 5 50 км 3/3 1200 м
[]
+24.1 +13.9 53 +26 +28 жарко 1029.2 993.2
16 13.09 СЗ 3 55 км 4/4 1200 м
[]
+23.9 +14.2 55 +26 +27 жарко 1029.0 993.0
17 13.09 З 4 50 км н/о +22.2 +14.6 62 +26 +26 душно 1029.3 993.1
18 13.09 СЗ 4 55 км н/о +20.6 +14.0 66 +23 +23 комфорт 1029.6 993.2 +25.1
19 13.09 60 км н/о +19.6 +13.8 69 1030.0 993.5
20 13.09 55 км 5/5 1500 м
[]
+17.9 +13.9 77 1030.5 993.7
21 13.09 45 км 10/10 1500 м
[]
+18.0 +14.4 79 1030.7 993.9
22 13.09 40 км 6/6 1500 м
[]
+17.2 +14.6 85 1030.9 994.0
23 13.09 35 км 9/9 1500 м
[]
+17.0 +14.7 86 1030.8 993.9
00 14.09 35 км 10/10 1500 м
[]
+16.9 +14.8 87 1030.8 993.9
01 14.09 30 км 10/10 1500 м
[]
+16.3 +15.0 92 1030.7 993.7
02 14.09 28 км 5/5 1500 м
[]
+15.7 +14.3 91 1030.6 993.6
03 14.09 30 км 9/9 1440 м
[]
+15.1 +14.1 94 1030.7 993.6
04 14.09 13 км 6/6 1500 м
[]
+14.7 +14.0 96 1030.9 993.7
05 14.09 16 км 9/9 1200 м
[]
+14.9 +14.1 95 1031.1 993.9
06 14.09 С 2 18 км 9/9 1200 м
[]
+16.0 +14.9 93 +16 +16 1031.2 994.2 +14.5
07 14.09 35 км 9/9 900 м
[]
+17.6 +14.8 84 1031.4 994.6
08 14.09 В 6 50 км 9/9 840 м
[]
+18.6 +13.6 73 +19 +19 1031.4 994.7
09 14.09 СВ 5 45 км 10/10 720 м
[]
+19.4 +13.7 70 +21 +21 комфорт 1031.5 994.9
10 14.09 В 5 50 км 9/9 660 м
[]
+19.7 +14.2 71 +21 +22 комфорт 1031.1 994.5
11 14.09 В 5 40 км 6/6 720 м
[]
+20.4 +14.3 68 +23 +25 комфорт 1030.2 993.8
12 14.09 В 5 40 км 8/8 720 м
[]
+20.8 +14.3 66 +24 +25 комфорт 1029.9 993.5
13 14.09 В 4 40 км 8/8 900 м
[]
+21.7 +13.9 61 +25 +26 комфорт 1029.3 993.0
14 14.09 В 3 40 км 6/6 960 м
[]
+22.4 +14.2 60 +26 +28 жарко 1028.4 992.3
15 14.09 С 3 45 км 8/8 1080 м
[]
+22.1 +14.3 61 +25 +26 комфорт 1028.3 992.1
16 14.09 В 3 60 км 4/4 1080 м
[]
+20.6 +13.3 63 +23 +24 комфорт 1028.0 991.6
17 14.09 В 3 45 км н/о +19.6 +12.8 65 +21 +21 комфорт 1028.1 991.6
18 14.09 55 км н/о +17.8 +12.7 72 1028.5 991.8 +22.6
19 14.09 СВ 3 55 км 1/1 1500 м
[]
+16.6 +12.8 78 +16 +16 1029.2 992.3
20 14.09 50 км н/о +15.9 +12.6 81 1029.4 992.4
21 14.09 40 км н/о +14.7 +12.1 84 1029.5 992.3
22 14.09 35 км н/о +14.5 +12.2 86 1029.4 992.2
23 14.09 35 км н/о +13.3 +11.7 90 1029.2 991.9
00 15.09 30 км н/о +12.5 +11.5 94 1028.9 991.5
01 15.09 35 км н/о +12.5 +11.4 93 1028.1 990.7
02 15.09 21 км н/о +11.6 +10.6 94 1027.8 990.3
03 15.09 штиль 0 23 км н/о +10.6 +10.1 97 +10 +10 1027.6 990.0
04 15.09 13 км ясно +9.3 +8.5 95 1027.8 990.0
05 15.09 17 км 1/0
[]
+9.9 +9.4 97 1027.6 989.9
06 15.09 С 2 30 км 1/0
[]
+11.8 +10.6 92 +11 +11 1027.5 990.0 +9.3
07 15.09 35 км 1/0
[]
+14.4 +11.1 81 1027.1 990.0
08 15.09 40 км 1/1 600 м
[]
+16.4 +11.9 75 1026.5 989.7
09 15.09 40 км 1/0
[]
+17.5 +12.0 70 1026.1 989.4
10 15.09 40 км 1/0
[]
+19.2 +12.4 65 1025.2 988.8
11 15.09 40 км 1/0
[]
+20.4 +13.2 63 1024.6 988.3
12 15.09 45 км 3/3 900 м
[]
+22.0 +14.2 61 1023.6 987.6
13 15.09 60 км 1/0
[]
+23.5 +14.3 56 1022.5 986.7
14 15.09 60 км 1/0
[]
+24.0 +15.0 57 1021.7 986.0
15 15.09 ЮЗ 3 50 км 1/0
[]
+24.3 +14.9 56 +27 +29 жарко 1020.7 985.1
16 15.09 З 3 50 км 1/0
[]
+24.4 +15.4 57 +27 +28 жарко 1020.2 984.6
17 15.09 СЗ 3 55 км н/о +22.9 +15.5 63 +27 +27 душно 1020.2 984.4
18 15.09 50 км н/о +19.8 +14.7 72 1020.6 984.4 +24.9
19 15.09 40 км н/о +19.1 +14.9 77 1020.9 984.6
20 15.09 35 км н/о +17.1 +14.3 84 1021.3 984.8
21 15.09 35 км н/о +16.4 +14.4 88 1021.4 984.8
22 15.09 30 км н/о +14.9 +13.6 92 1021.7 984.9
23 15.09 18 км н/о +14.4 +13.3 93 1021.9 985.0
00 16.09 9000 м н/о +13.8 +13.5 98 1021.5 984.5
01 16.09 14 км н/о +13.0 +12.3 96 1021.4 984.3
02 16.09 6000 м н/о +12.7 +12.1 96 1021.2 984.1
03 16.09 6000 м н/о +12.7 +12.3 97 1020.9 983.8
04 16.09 5000 м 5/5 1500 м
[]
+12.2 +11.8 97 1020.8 983.6
05 16.09 3500 м туман на расстоянии 5/5 1380 м
[]
+12.7 +12.4 98 1020.8 983.7
06 16.09 С 2 10 км 1/1 1320 м
[]
+13.5 +12.9 96 +13 +13 1020.5 983.5 +11.3
07 16.09 18 км 1/1 1500 м
[]
+16.7 +15.0 90 1020.3 983.8
08 16.09 СЗ 4 28 км 1/1 1500 м
[]
+18.3 +15.5 84 +19 +22 1020.4 984.1
09 16.09 30 км 1/1 1500 м
[]
+20.5 +15.7 74 1019.8 983.8
10 16.09 30 км 5/5 1500 м
[]
+22.0 +15.0 64 1019.2 983.3
11 16.09 СЗ 3 45 км 5/5 1500 м
[]
+23.6 +13.5 53 +26 +30 жарко 1018.4 982.7
12 16.09 З 6 40 км 5/5 1500 м
[]
+25.2 +12.8 46 +27 +29 жарко 1017.4 982.0
13 16.09 З 5 65 км 8/8 1500 м
[]
+25.2 +12.1 44 +27 +28 жарко 1016.7 981.3
14 16.09 СЗ 5 45 км 5/5 1500 м
[]
+25.5 +13.6 48 +28 +29 жарко 1016.1 980.8
15 16.09 СЗ 3 50 км 8/8 1350 м
[]
+24.1 +14.1 54 +27 +27 жарко 1016.0 980.5
16 16.09 40 км 9/9 1200 м
[]
+23.5 +15.0 59 1015.8 980.2
17 16.09 45 км 8/0
[]
+22.5 +14.3 60 1015.6 979.9
18 16.09 50 км 10/0
[]
+21.8 +14.5 63 1015.8 980.0 +25.9
19 16.09 40 км 10/10 1500 м
[]
+19.7 +14.9 74 1016.2 980.2
20 16.09 40 км 9/9 1440 м
[]
+19.7 +15.3 76 1016.1 980.1
21 16.09 С 1 35 км 10/10 1440 м
[]
+19.2 +15.7 80 +22 +22 комфорт 1016.2 980.1
22 16.09 27 км 10/10 1500 м
[]
+18.6 +16.3 86 1016.3 980.2
23 16.09 16 км 9/0 2000 м
[]
+18.6 +16.8 89 1016.0 979.9
00 17.09 З 4 20 км 10/10 1500 м
[]
+18.3 +16.8 91 +19 +19 1015.7 979.6
01 17.09 23 км 10/0 2000 м
[]
+17.9 +15.7 87 1015.7 979.5
02 17.09 26 км 10/0
[]
+17.8 +15.4 86 1015.7 979.5
03 17.09 С 3 30 км 10/0
[]
+17.7 +14.4 81 +18 +18 1016.0 979.7
04 17.09 З 3 30 км 9/9 1500 м
[]
+17.2 +13.8 80 +17 +17 1016.4 980.0
05 17.09 З 3 35 км 9/9 1050 м
[]
+16.8 +13.6 81 +17 +17 1016.7 980.3
06 17.09 З 4 45 км 9/9 1050 м
[]
+17.2 +12.6 74 +17 +17 1016.9 980.5 +16.6
07 17.09 ЮЗ 4 45 км 9/9 1500 м
[]
+17.5 +12.7 73 +17 +17 1016.9 980.6
08 17.09 З 4 45 км 9/9 750 м
[]
+18.6 +13.0 70 +19 +19 1016.9 980.7
09 17.09 З 6 50 км 9/9 840 м
[]
+19.4 +12.7 65 +20 +21 1016.8 980.7
10 17.09 З 5 60 км 9/9 750 м
[]
+19.7 +13.1 66 +21 +22 комфорт 1016.3 980.3
11 17.09 СЗ 5 55 км 9/9 750 м
[]
+19.7 +13.5 67 +21 +22 комфорт 1016.3 980.3
12 17.09 СЗ 7 40 км 9/9 750 м
[]
+19.6 +13.2 67 +21 +21 комфорт 1016.1 980.0
13 17.09 З 7 40 км 9/9 600 м
[]
+19.1 +13.0 68 +20 +20 1015.9 979.8
14 17.09 З 8 35 км 9/9 600 м
[]
+18.4 +13.3 72 +18 +18 1016.0 979.8
15 17.09 СЗ 9 55 км 8/8 720 м
[]
+19.0 +12.5 66 +19 +19 1015.6 979.5

 

Местоположение метеостанции Линц (Австрия): широта 48.23 долгота 14.18 высота над уровнем моря 313 м.

В архиве по умолчанию представлена погода в Линце за последнюю неделю. Архивные данные за месяц целиком и за предыдущие месяцы, начиная с января 2011 года, Вы можете получить, выбрав интересующий диапазон дат из раскрывающегося списка и нажав кнопку "Ввод!".


*Определитесь, кто Вы:
робот инопланетянин человек

Внимание! Время в таблицах - всемирное. Для получения местного времени необходимо прибавить поправку, которая равна 1 ч.

Смотрите также архив погоды в соседних городах и на ближайших метеорологических станциях:

Погода в Вельс / Шлайсхайм (Австрия) (11 км)
Погода в Линце город (Австрия) (11 км)
Погода в Кремсмюнстере (Австрия) (20 км)
Погода в Рорбахе (Австрия) (40 км)
Погода в Вольфсегг-ам-Хаусрукке (Австрия) (41 км)
Погода в Гмундене (Австрия) (46 км)
Погода в Рид-им-Иннкрайсе (Австрия) (52 км)
Погода в Вайдхофен-ан-дер-Ибсе (Австрия) (54 км)
Погода в Амштеттене (Австрия) (55 км)
Погода в Вайдхофен-ан-дер-Ибсе (Австрия) (56 км)

Пояснения к столбцам:

Ветер - указаны скорость ветра в м/с - средняя за 10 мин, порывы в срок и между сроками (в фигурных скобках) и направление, откуда дует ветер: С - северный, СВ - северо-восточный, В - восточный, ЮВ - юго-восточный, Ю - южный, ЮЗ - юго-западный, З - западный, СЗ - северо-западный.
Видимость - горизонтальная дальность видимости в метрах или километрах. При видимости от 1 до 10 км при отсутствии осадков обычно наблюдается дымка, при ухудшении видимости до 1 км и менее - туман. В сухую погоду видимость может ухудшаться дымом, пылью или мглою.
Явления - указаны атмосферные явления, наблюдавшиеся в срок или в последний час перед сроком; фигурными скобками обозначены явления, наблюдавшиеся между сроками (за 1-3 часа до срока); квадратными скобками обозначены град или гололедные отложения с указанием их диаметра в мм.
Облачность - указаны через наклонную черту общая и нижняя облачность в баллах и высота нижней границы облаков в метрах; квадратными скобками обозначены формы облаков: Ci - перистые, Cs - перисто-слоистые, Cc - перисто-кучевые, Ac - высококучевые, As - высокослоистые, Sc - слоисто-кучевые, Ns - слоисто-дождевые, Cu - кучевые, Cb - кучево-дождевые. Подробнее классификацию облаков см. в Атласе облаков (PDF).
T - Температура воздуха - температура, измеренная на высоте 2 м над землей.
Td - Температура точки росы - температура, при понижении до которой содержащийся в воздухе водяной пар достигнет насыщения.
f - Относительная влажность воздуха - влажноcть воздуха, измеренная на высоте 2 м над землей.
Te - Эффективная температура - температура, которую ощущает одетый по сезону человек в тени. Характеристика душности погоды. При расчете учитывается влияние влажности воздуха и скорости ветра на теплоощущения человека.
Tes - Эффективная температура на солнце - температура, которую ощущает человек, с поправкой на солнечный нагрев. Характеристика знойности погоды. Зависит от высоты солнца над горизонтом, облачности и скорости ветра. Ночью, в пасмурную погоду, а также при ветре 12 м/с и более поправка равна нулю.
P - Атмосферное давление - приведенное к уровню моря атмосферное давление.
Po - Атмосферное давление - измеренное на уровне метеостанции атмосферное давление.
Tmin - Минимальная температура - минимум температуры воздуха на высоте 2 м над землей.
Tmax - Максимальная температура - максимум температуры воздуха на высоте 2 м над землей.
R - Количество осадков - Количество выпавших осадков за период времени, мм. При наведении курсора мыши на число - период времени, за который выпало указанное количество осадков.
R24 - Количество осадков - Количество выпавших осадков за 24 часа, мм.
S - Снежный покров - Высота снежного покрова, см. При наведении курсора мыши на число - состояние снежного покрова и степень покрытия местности в баллах.